Location: Kiltepe
(36.4752°N, 30.0120°E)
Time: 10:59:58
(UTC+00:00)

SL-16 R/B - Pass Details

Date: 03 August 2024
Orbit: 842 x 845 km, 71.0° (Epoch: 14 September)

Event Time Altitude Azimuth Distance (km) Brightness Sun altitude
Exits shadow 22:58:35 37° 44° (NE) 1,279 3.4 -34.9°
Drops below altitude 10° 23:02:03 10° 29° (NNE) 2,467 5.4 -34.8°
Sets 23:04:31 0° 26° (NNE) 3,406 6.4 -34.6°
